STARLINK-34055, 63819

Orbit data source: Space-Track

STARLINK-34055, 63819 is a payload satellite owned by SpaceX/Seattle (US) in LEO that was launched on Sun, 04 May 2025 UTC via an FALCON 9 launch vehicle from the Air Force Eastern Test Range (AFETR). Payload-class satellites include a variety of spacecraft equipped with specific instruments for various scientific and technological missions. These include communications satellites like Starlink; space stations such as the ISS; scientific satellites like the Hubble; Earth observation satellites from companies like Planet Labs, Umbra, and HawkEye 360; GPS; miniature CubeSats for education and research; and military/defense satellites.

Loading next visibility...
Identifier
63819, 2025-092R
Orbit
LEO
Country
Flag of USUS
Related business
Manufacturer
SpaceX/Seattle
Mission
Operational Commercial Communications
Bus & Motor
STARLINK V2MO, Unknown motor
Mass
575 kg wet, ~530 kg dry
Launch date (UTC)
2025-05-04 (11 months ago)
Launch vehicle
FALCON 9
Launch site
Air Force Eastern Test Range (AFETR)
Object type
Payload
Rocket body
Debris
Shape & HBR
Box + 2 Pan, 17.7 m
Radar Cross Section
36.964 m², Large (>1 m²)

Expand to show TLE details & history
Last TLE update: 13 hours ago

TLE from 13 hours ago
0 STARLINK-34055
1 63819U 25092R   26102.05060524  .00025310  00000-0  92610-3 0  9990
2 63819  43.0026 344.3905 0001265 256.0405 104.0306 15.27579985 53716
Epoch: 2026-04-12T01:12Z
TLE epoch observation values (Epoch: 2026-04-12T01:12:52.292Z)
Latitude
-0.00003°
Longitude
125.91146°
Altitude
483.035 km
Speed
7.626 km/s
True Right ascension
22h 57m 33s
True Declination
0° 00' 00"
Sunlit
Object was in daylight at epoch
Visualization orbit readout
Latitude
Unknown
Longitude
Unknown
Altitude
Unknown
Speed
Unknown
Apparent Right ascension
Unknown
Apparent Declination
Unknown
Sunlit
N/A
Visualization observer readout
Local Sidereal Time
20:26:25
Azimuth
Unknown
Elevation
Unknown
Doppler factor
Unknown
Orbital elements
Apogee altitude
485.862 km
Perigee altitude
484.126 km
Semi-major axis
6,863.131 km
Eccentricity
0.00013
Inclination
43.0026°
RAAN
344.3905°
Arg. of periapsis
256.0405°
True anomaly
104.04466°
Mean anomaly
104.0306°
Eccentric anomaly
104.03763°
Mean motion
3.81733 °/min
Orbital period
94.31 mins
BSTAR
0.0009261
Loading maneuver chart data...
Computing Atmospheric mass density...
Loading historical data...
Loading historical data...
Loading historical data...
Loading historical data...
Loading historical data...
Loading historical data...
Loading historical data...

Documentation

Showing up to 5 results
|